Location: Asheville, NC
(35.6000°N, 82.5500°W)
Time: 14:38:42
(UTC-05:00)

RS-15 - Pass Details

Date: 12 January 2018
Orbit: 1886 x 2158 km, 64.8° (Epoch: 17 January)

Event Time Altitude Azimuth Distance (km) Brightness Sun altitude
Rises 17:46:23 0° 330° (NNW) 5,591 10.5 -2.4°
Reaches altitude 10° 17:50:24 10° 340° (NNW) 4,551 9.9 -3.2°
Maximum altitude 18:00:59 36° 44° (NE) 2,840 8.5 -5.1°
Drops below altitude 10° 18:11:00 10° 108° (ESE) 4,342 9.4 -7.0°
Sets 18:14:39 0° 117° (ESE) 5,309 9.9 -7.7°
